Butler, PA

7:27 PM EDT on September 20, 2019 (GMT -0400)
Butler County-Scholter

Weather History for KBTP - August, 2019

Change the Weather History Date:

Sunday, August 25, 2019

  Actual Average Record
Temperature  
Mean Temperature 60 °F -  
Max Temperature 73 °F 76 °F 91 °F (1968)
Min Temperature 48 °F 57 °F 40 °F (1971)
Degree Days  
Heating Degree Days 4    
Growing Degree Days 10 (Base 50)    
Moisture  
Dew Point 51 °F    
Average Humidity 70    
Maximum Humidity 97    
Minimum Humidity 46    
Precipitation  
Precipitation 0.00 in - - ()
Sea Level Pressure  
Sea Level Pressure 30.24 in    
Wind  
Wind Speed 7 mph (East)    
Max Wind Speed 12 mph    
Max Gust Speed 17 mph    
Visibility 10 miles    
Events      
Averages and records for this station are not official NWS values.
T = Trace of Precipitation, MM = Missing Value Source: NWS Daily Summary

Daily Weather History Graph

Daily Weather History Graph

Search for Another Location

Airport or City:

Astronomy

Aug. 25, 2019 Rise Set
Actual Time 6:39 AM EDT 8:03 PM EDT
Civil Twilight 6:11 AM EDT 8:32 PM EDT
Nautical Twilight 5:36 AM EDT 9:06 PM EDT
Astronomical Twilight 5:00 AM EDT 9:42 PM EDT
Moon 1:12 AM EDT (8/25) 4:23 PM EDT (8/25)
Length of Visible Light 14h 21m
Length of Day
13h 23m
Waning Crescent, 29% of the Moon is Illuminated
Aug 25
Waning Crescent
Aug 30
New
Sep 5
First Quarter
Sep 14
Full
Sep 21
Last Quarter

Hourly Weather History & Observations

Time (EDT) Temp. Dew Point Humidity Pressure Visibility Wind Dir Wind Speed Gust Speed Precip Events Conditions
12:56 AM 52.0 °F 48.0 °F 86% 30.28 in 10.0 mi NE 6.9 mph - N/A   Clear
1:56 AM 51.1 °F 48.9 °F 92% 30.27 in 10.0 mi NE 5.8 mph - N/A   Clear
2:56 AM 54.0 °F 48.9 °F 83% 30.26 in 10.0 mi ENE 6.9 mph - N/A   Clear
3:56 AM 52.0 °F 48.9 °F 89% 30.25 in 10.0 mi NE 4.6 mph - N/A   Clear
4:56 AM 48.9 °F 48.0 °F 97% 30.26 in 10.0 mi NNE 4.6 mph - N/A   Clear
5:56 AM 48.9 °F 48.0 °F 97% 30.26 in 10.0 mi NE 4.6 mph - N/A   Clear
6:56 AM 48.9 °F 48.0 °F 97% 30.27 in 10.0 mi NE 5.8 mph - N/A   Clear
7:56 AM 55.0 °F 51.1 °F 86% 30.29 in 10.0 mi ENE 9.2 mph - N/A   Clear
8:56 AM 60.1 °F 53.1 °F 78% 30.28 in 10.0 mi East 11.5 mph - N/A   Clear
9:56 AM 64.0 °F 53.1 °F 67% 30.28 in 10.0 mi East 9.2 mph - N/A   Clear
10:56 AM 68.0 °F 55.0 °F 63% 30.27 in 10.0 mi East 8.1 mph - N/A   Clear
11:56 AM 70.0 °F 54.0 °F 57% 30.27 in 10.0 mi ESE 8.1 mph - N/A   Partly Cloudy
12:56 PM 71.1 °F 52.0 °F 51% 30.25 in 10.0 mi SE 10.4 mph 17.3 mph N/A   Mostly Cloudy
1:56 PM 72.0 °F 51.1 °F 48% 30.24 in 10.0 mi SE 11.5 mph - N/A   Mostly Cloudy
2:56 PM 71.1 °F 50.0 °F 47% 30.22 in 10.0 mi East 11.5 mph - N/A   Mostly Cloudy
3:56 PM 73.0 °F 51.1 °F 46% 30.22 in 10.0 mi ESE 11.5 mph - N/A   Scattered Clouds
4:56 PM 73.9 °F 52.0 °F 46% 30.22 in 10.0 mi ESE 10.4 mph - N/A   Scattered Clouds
5:56 PM 73.0 °F 51.1 °F 46% 30.20 in 10.0 mi SSE 8.1 mph - N/A   Mostly Cloudy
6:56 PM 70.0 °F 50.0 °F 49% 30.20 in 10.0 mi ESE 6.9 mph - N/A   Mostly Cloudy
7:56 PM 66.9 °F 52.0 °F 59% 30.19 in 10.0 mi Calm Calm - N/A   Clear
8:56 PM 62.1 °F 52.0 °F 70% 30.19 in 10.0 mi East 6.9 mph - N/A   Clear
9:56 PM 62.1 °F 52.0 °F 70% 30.19 in 10.0 mi East 5.8 mph - N/A   Clear
10:56 PM 62.1 °F 52.0 °F 70% 30.19 in 10.0 mi East 6.9 mph - N/A   Clear
11:56 PM 60.1 °F 52.0 °F 75% 30.20 in 10.0 mi East 5.8 mph - N/A   Clear